Location: Crescent
(42.8242°N, 73.7329°W)
Time: 18:31:58
(UTC+00:00)

Vanguard 1 - Pass Details

Date: 18 February 2026
Orbit: 653 x 3818 km, 34.2° (Epoch: 5 March)

Event Time Altitude Azimuth Distance (km) Brightness Sun altitude
Rises 17:25:08 0° 181° (S) 3,987 14.2 35.6°
Reaches altitude 10° 17:29:20 10° 156° (SSE) 3,523 13.9 35.5°
Maximum altitude 17:33:38 14° 127° (SE) 3,719 13.5 35.4°
Drops below altitude 10° 17:39:03 10° 101° (E) 4,674 13.6 35.3°
Sets 17:46:34 0° 81° (E) 6,471 14.1 35.1°
